CST,Max TemperatureF,Mean TemperatureF,Min TemperatureF,Max Dew PointF,MeanDew PointF,Min DewpointF,Max Humidity, Mean Humidity, Min Humidity, Max Sea Level PressureIn, Mean Sea Level PressureIn, Min Sea Level PressureIn, Max VisibilityMiles, Mean VisibilityMiles, Min VisibilityMiles, Max Wind SpeedMPH, Mean Wind SpeedMPH, Max Gust SpeedMPH,PrecipitationIn, CloudCover, Events, WindDirDegrees
2012-12-1,68,55,42,29,25,20,47,33,21,,,,,,,21,9,,0.00,,,277
2012-12-2,68,54,39,31,24,13,53,36,22,,,,,,,21,9,,0.00,,,208
2012-12-3,64,55,46,29,22,13,44,30,20,,,,,,,23,12,,0.00,,,314
2012-12-4,59,46,34,25,21,17,52,39,25,,,,,,,13,6,,0.00,,,224
2012-12-5,61,48,35,29,24,17,52,42,29,,,,,,,20,13,,0.00,,,184
2012-12-6,57,47,37,32,24,14,49,38,29,,,,,,,20,12,,0.00,,,347
2012-12-7,55,42,30,28,19,12,54,42,32,,,,,,,12,4,,0.00,,,351
2012-12-8,45,35,25,29,22,13,82,61,45,,,,,,,21,8,,0.00,,,199
2012-12-9,35,25,15,27,7,-2,76,44,31,,,,,,,22,14,,0.00,,,339
2012-12-10,43,25,7,7,1,-3,67,39,21,,,,,,,16,7,,0.00,,,243
2012-12-11,43,32,21,17,8,0,56,40,28,,,,,,,15,7,,0.00,,,254
2012-12-12,60,40,19,19,10,4,52,34,17,,,,,,,17,12,,0.00,,,188
2012-12-13,66,48,30,22,14,7,39,28,13,,,,,,,14,8,,0.00,,,230
2012-12-14,52,44,37,42,29,12,87,59,31,,,,,,,22,11,,0.00,,,207
2012-12-15,57,46,35,31,26,22,67,50,32,,,,,,,17,10,,0.00,,,276
2012-12-16,41,34,28,31,25,17,82,71,45,,,,,,,15,7,,0.00,,,292
2012-12-17,54,40,26,25,20,16,82,53,23,,,,,,,15,8,,0.00,,,246
2012-12-18,52,41,30,23,18,13,52,41,26,,,,,,,17,8,,0.00,,,145
2012-12-19,46,35,23,26,17,6,72,50,31,,,,,,,38,14,,0.00,,,280
2012-12-20,45,30,15,13,5,0,52,37,20,,,,,,,20,13,,0.00,,,267
2012-12-21,59,44,28,18,10,4,41,30,18,,,,,,,14,10,,0.00,,,222
2012-12-22,60,44,28,19,12,3,46,31,15,,,,,,,15,9,,0.00,,,302
2012-12-23,54,38,23,20,12,7,53,39,17,,,,,,,16,6,,0.00,,,289
2012-12-24,42,30,18,17,13,7,69,50,34,,,,,,,23,11,,0.00,,,113
2012-12-25,18,12,5,9,4,-1,80,69,62,,,,,,,24,15,,0.00,,,350
2012-12-26,28,16,3,16,8,-1,84,71,56,,,,,,,25,10,,0.00,,,173
2012-12-27,27,18,10,16,10,2,81,69,56,,,,,,,20,12,,0.00,,,334
2012-12-28,35,24,14,16,11,6,78,60,37,,,,,,,18,9,,0.00,,,318
2012-12-29,44,30,17,16,11,6,66,50,30,,,,,,,17,10,,0.00,,,227
2012-12-30,44,34,24,21,15,10,60,45,34,,,,,,,23,16,,0.00,,,187
2012-12-31,35,26,17,24,16,11,84,73,55,,,,,,,16,10,,0.00,,,329